GW1943 Weather Reports


Display with metric or nautical units.
time (UTC)temp
F
wind
direction
speed
MPH
gust
MPH
rain 1hr
in
rain 24hr
in
rain mn
in
humidity
%
barometer
mb
20260905072015 54 200 0.0 0.0 0.00 0.00 0.00 95 1017.8
20260905071511 54 200 0.0 0.0 0.00 0.00 0.00 95 1017.8
20260905071011 54 201 0.0 0.0 0.00 0.00 0.00 96 1017.6
20260905070506 54 201 0.0 0.0 0.00 0.00 0.00 96 1017.5
20260905070001 54 201 0.0 0.0 0.00 0.00 0.00 95 1017.6
20260905065459 54 201 0.0 0.0 0.00 0.00 0.00 95 1017.4
20260905064955 54 201 0.0 0.0 0.00 0.00 0.00 95 1017.5
20260905064449 54 201 0.0 0.0 0.00 0.00 0.00 95 1017.7
20260905063944 54 201 0.0 0.0 0.00 0.00 0.00 95 1017.4
20260905063439 54 201 0.0 0.0 0.00 0.00 0.00 95 1017.5
20260905062935 54 201 0.0 0.0 0.00 0.00 0.00 94 1017.7
20260905062429 55 201 0.0 0.0 0.00 0.00 0.00 94 1017.2
20260905061924 55 201 0.0 0.0 0.00 0.00 0.00 94 1017.2
20260905061419 55 201 0.0 0.0 0.00 0.00 0.00 93 1017.1
20260905060918 55 201 0.0 0.0 0.00 0.00 0.00 93 1017.1
20260905060415 56 201 0.0 0.0 0.00 0.00 0.00 93 1017.0
20260905055914 56 201 0.0 0.0 0.00 0.00 0.00 92 1017.1
20260905055409 56 201 0.0 0.0 0.00 0.00 0.00 92 1017.1
20260905054908 56 201 0.0 0.0 0.00 0.00 0.00 92 1017.1
20260905054405 56 201 0.0 0.0 0.00 0.00 0.00 91 1016.9
20260905053904 56 201 0.0 0.0 0.00 0.00 0.00 91 1017.1
20260905053359 57 201 0.0 0.0 0.00 0.00 0.00 91 1017.0
20260905052855 57 201 0.0 0.0 0.00 0.00 0.00 90 1016.9
20260905052354 57 201 0.0 0.0 0.00 0.00 0.00 89 1016.8
20260905051854 57 201 0.0 0.0 0.00 0.00 0.00 89 1017.0
20260905051350 57 201 0.0 0.0 0.00 0.00 0.00 89 1017.1
20260905050847 57 201 0.0 0.0 0.00 0.00 0.00 88 1017.3
20260905050343 57 201 0.0 0.0 0.00 0.00 0.00 88 1017.1
20260905045842 57 201 0.0 0.0 0.00 0.00 0.00 87 1017.0
20260905045338 57 201 0.0 0.0 0.00 0.00 0.00 86 1017.1
20260905044833 57 201 0.0 0.0 0.00 0.00 0.00 85 1017.1
20260905044329 57 201 0.0 0.0 0.00 0.00 0.00 85 1017.1
20260905043827 57 201 0.0 0.0 0.00 0.00 0.00 85 1017.1
20260905043322 58 201 0.0 0.0 0.00 0.00 0.00 85 1017.1
20260905042817 58 201 0.0 0.0 0.00 0.00 0.00 85 1016.8
20260905042316 58 201 0.0 0.0 0.00 0.00 0.00 85 1017.2
20260905041812 58 201 0.0 0.0 0.00 0.00 0.00 84 1017.2
20260905041308 58 201 0.0 0.0 0.00 0.00 0.00 83 1017.1
20260905040803 58 201 0.0 0.0 0.00 0.00 0.00 83 1017.2
20260905040301 58 201 0.0 0.0 0.00 0.00 0.00 82 1017.2
20260905035756 58 201 0.0 0.0 0.00 0.00 0.00 82 1017.1
20260905035252 58 201 0.0 0.0 0.00 0.00 0.00 83 1017.0
20260905034749 58 202 0.0 0.0 0.00 0.00 0.00 83 1017.2
20260905034248 58 213 0.0 0.0 0.00 0.00 0.00 83 1017.0
20260905033747 58 213 0.0 0.0 0.00 0.00 0.00 82 1017.0
20260905033243 58 213 0.0 0.0 0.00 0.00 0.00 83 1016.9
20260905032742 58 213 0.0 0.0 0.00 0.00 0.00 84 1016.9
20260905032237 58 219 0.0 0.0 0.00 0.00 0.00 83 1016.8
20260905031732 58 210 0.0 0.0 0.00 0.00 0.00 82 1016.9
20260905031228 59 210 0.0 0.0 0.00 0.00 0.00 82 1016.9
20260905030723 59 210 0.0 0.0 0.00 0.00 0.00 83 1016.6
20260905030218 59 210 0.0 0.0 0.00 0.00 0.00 83 1016.7
20260905025713 59 210 0.0 0.0 0.00 0.00 0.00 82 1016.6
20260905025209 59 210 0.0 0.0 0.00 0.00 0.00 81 1016.9
20260905024704 60 210 0.0 0.0 0.00 0.00 0.00 80 1016.6
20260905024200 60 205 0.0 0.0 0.00 0.00 0.00 79 1016.7
20260905023655 59 210 0.0 0.0 0.00 0.00 0.00 81 1016.5
20260905023155 59 199 0.0 0.0 0.00 0.00 0.00 81 1016.5
20260905022654 59 198 0.0 1.0 0.00 0.00 0.00 82 1016.3
20260905022149 60 202 0.0 0.0 0.00 0.00 0.00 83 1016.5
20260905021649 60 201 0.0 0.0 0.00 0.00 0.00 82 1016.5
20260905021144 60 201 0.0 0.0 0.00 0.00 0.00 82 1016.4
20260905020639 60 200 0.0 1.0 0.00 0.00 0.00 82 1016.5
20260905020134 60 197 0.0 0.0 0.00 0.00 0.00 82 1016.2
20260905015633 61 191 0.0 0.0 0.00 0.00 0.00 82 1016.4
20260905015127 61 188 0.0 0.0 0.00 0.00 0.00 81 1016.4
20260905014621 62 162 1.0 2.0 0.00 0.00 0.00 79 1016.3
20260905014117 62 235 0.0 1.0 0.00 0.00 0.00 79 1016.3
20260905013613 62 192 0.0 0.0 0.00 0.00 0.00 79 1016.5
20260905013109 62 24 0.0 1.0 0.00 0.00 0.00 78 1016.3
20260905012609 62 196 0.0 0.0 0.00 0.00 0.00 77 1016.0
20260905012105 62 199 0.0 0.0 0.00 0.00 0.00 76 1015.9
20260905011601 62 195 0.0 1.0 0.00 0.00 0.00 75 1016.3
20260905011057 62 194 1.0 1.0 0.00 0.00 0.00 74 1016.0
20260905010556 62 209 0.0 1.0 0.00 0.00 0.00 74 1016.1
20260905010053 63 200 0.0 1.0 0.00 0.00 0.00 74 1016.0
20260905005548 63 166 0.0 1.0 0.00 0.00 0.00 73 1015.8
20260905005043 63 188 0.0 2.0 0.00 0.00 0.00 73 1016.0
20260905004538 63 188 0.0 1.0 0.00 0.00 0.00 76 1016.0
20260905004033 63 158 0.0 0.0 0.00 0.00 0.00 76 1015.6
20260905003529 63 193 0.0 1.0 0.00 0.00 0.00 76 1015.8
20260905003025 64 109 0.0 1.0 0.00 0.00 0.00 75 1015.7
20260905002520 64 197 0.0 1.0 0.00 0.00 0.00 73 1015.7
20260905002020 65 195 0.0 1.0 0.00 0.00 0.00 70 1015.6
20260905001514 66 205 1.0 2.0 0.00 0.00 0.00 66 1015.6
20260905001009 67 76 0.0 1.0 0.00 0.00 0.00 63 1015.7
20260905000504 68 176 0.0 1.0 0.00 0.00 0.00 60 1015.7
20260905000000 69 30 0.0 1.0 0.00 0.00 0.00 53 1015.5
20260904235455 71 208 0.0 1.0 0.00 0.00 0.00 51 1015.4
20260904234949 74 201 0.0 2.0 0.00 0.00 0.00 47 1015.4
20260904234449 75 141 0.0 1.0 0.00 0.00 0.00 49 1015.3
20260904233945 74 212 0.0 3.0 0.00 0.00 0.00 51 1015.4
20260904233440 75 214 0.0 2.0 0.00 0.00 0.00 49 1015.5
20260904232937 78 209 0.0 0.0 0.00 0.00 0.00 46 1015.3
20260904232433 77 218 0.0 1.0 0.00 0.00 0.00 45 1015.2
20260904231929 76 199 0.0 1.0 0.00 0.00 0.00 47 1015.1
20260904231429 75 213 0.0 1.0 0.00 0.00 0.00 46 1015.2
20260904230925 76 232 1.0 2.0 0.00 0.00 0.00 46 1015.1
20260904230423 75 211 1.0 2.0 0.00 0.00 0.00 50 1015.2
20260904225918 76 242 1.0 2.0 0.00 0.00 0.00 48 1015.0
20260904225417 75 220 1.0 2.0 0.00 0.00 0.00 49 1015.0
20260904224911 77 207 1.0 3.0 0.00 0.00 0.00 46 1015.1
20260904224407 75 213 0.0 2.0 0.00 0.00 0.00 48 1015.0
20260904223901 75 231 0.0 2.0 0.00 0.00 0.00 51 1014.8
20260904223400 76 209 1.0 3.0 0.00 0.00 0.00 47 1015.0
20260904222856 76 214 1.0 2.0 0.00 0.00 0.00 47 1014.8
20260904222351 76 229 2.0 3.0 0.00 0.00 0.00 48 1015.0
20260904221851 76 216 0.0 0.0 0.00 0.00 0.00 50 1014.9
20260904221346 78 215 1.0 2.0 0.00 0.00 0.00 48 1014.9
20260904220841 77 216 0.0 0.0 0.00 0.00 0.00 49 1015.1
20260904220340 75 214 0.0 1.0 0.00 0.00 0.00 52 1015.0
20260904215836 74 238 1.0 2.0 0.00 0.00 0.00 52 1014.9
20260904215331 74 225 0.0 2.0 0.00 0.00 0.00 55 1014.8
20260904214827 75 205 1.0 3.0 0.00 0.00 0.00 51 1014.9
20260904214322 76 21 1.0 3.0 0.00 0.00 0.00 49 1014.8
20260904213820 75 224 1.0 1.0 0.00 0.00 0.00 53 1014.5
20260904213315 75 218 0.0 2.0 0.00 0.00 0.00 56 1014.7
20260904212811 76 211 0.0 0.0 0.00 0.00 0.00 57 1014.7
20260904212306 75 223 0.0 1.0 0.00 0.00 0.00 53 1014.8
20260904211801 76 223 1.0 1.0 0.00 0.00 0.00 53 1014.7
20260904211255 74 222 0.0 1.0 0.00 0.00 0.00 55 1014.7
20260904210751 73 230 0.0 1.0 0.00 0.00 0.00 59 1014.6
20260904210244 73 198 0.0 3.0 0.00 0.00 0.00 57 1014.8
20260904205741 72 214 0.0 2.0 0.00 0.00 0.00 60 1014.8
20260904205237 72 217 1.0 2.0 0.00 0.00 0.00 57 1014.7
20260904204733 72 215 2.0 3.0 0.00 0.00 0.00 56 1014.6
20260904204229 73 211 1.0 2.0 0.00 0.00 0.00 55 1014.6
20260904203725 72 252 0.0 1.0 0.00 0.00 0.00 60 1014.7
20260904203221 72 255 1.0 2.0 0.00 0.00 0.00 60 1014.8
20260904202717 71 212 1.0 2.0 0.00 0.00 0.00 61 1014.6
20260904202213 71 234 1.0 2.0 0.00 0.00 0.00 60 1014.8
20260904201708 71 232 0.0 1.0 0.00 0.00 0.00 61 1014.7
20260904201208 71 221 1.0 1.0 0.00 0.00 0.00 59 1014.8
20260904200703 69 219 3.0 3.0 0.00 0.00 0.00 61 1014.8
20260904200157 70 204 1.0 5.0 0.00 0.00 0.00 62 1014.6
20260904195656 68 230 1.0 2.0 0.00 0.00 0.00 65 1014.9
20260904195150 68 214 1.0 1.0 0.00 0.00 0.00 65 1014.7
20260904194650 67 204 0.0 2.0 0.00 0.00 0.00 69 1014.7
20260904194144 66 208 0.0 1.0 0.00 0.00 0.00 68 1014.9
20260904193639 66 197 0.0 0.0 0.00 0.00 0.00 68 1014.7
20260904193136 65 173 1.0 2.0 0.00 0.00 0.00 70 1014.6
20260904192635 65 20 2.0 3.0 0.00 0.00 0.00 70 1014.7
20260904192131 65 212 0.0 1.0 0.00 0.00 0.00 73 1014.7
20260904191627 65 235 1.0 2.0 0.00 0.00 0.00 72 1014.7
20260904191124 65 216 0.0 0.0 0.00 0.00 0.00 74 1014.8
20260904190619 64 223 1.0 1.0 0.00 0.00 0.00 76 1014.8
20260904190115 64 198 0.0 1.0 0.00 0.00 0.00 76 1014.8
20260904185612 64 242 0.0 1.0 0.00 0.00 0.00 77 1014.6
20260904185106 64 216 0.0 1.0 0.00 0.00 0.00 77 1014.8
20260904184605 64 232 1.0 2.0 0.00 0.00 0.00 78 1014.9
20260904184101 63 223 0.0 1.0 0.00 0.00 0.00 80 1014.9
20260904183556 62 214 0.0 3.0 0.00 0.00 0.00 79 1014.9
20260904183051 62 240 1.0 2.0 0.00 0.00 0.00 81 1014.8
20260904182547 62 222 1.0 1.0 0.00 0.00 0.00 82 1014.7
20260904182047 61 240 2.0 3.0 0.00 0.00 0.00 81 1014.7
20260904181543 61 211 0.0 3.0 0.00 0.00 0.00 84 1014.8
20260904181042 61 222 1.0 2.0 0.00 0.00 0.00 85 1014.9
20260904180537 61 244 2.0 5.0 0.00 0.00 0.00 84 1014.7
20260904180032 60 218 0.0 2.0 0.00 0.00 0.00 84 1014.8
20260904175526 60 214 1.0 2.0 0.00 0.00 0.00 85 1014.8
20260904175025 60 228 1.0 2.0 0.00 0.00 0.00 86 1014.7
20260904174520 60 216 0.0 1.0 0.00 0.00 0.00 88 1014.9
20260904174017 60 219 0.0 1.0 0.00 0.00 0.00 89 1014.9
20260904173517 59 214 0.0 2.0 0.00 0.00 0.00 89 1014.9
20260904173012 59 215 1.0 2.0 0.00 0.00 0.00 88 1014.9
20260904172508 59 226 2.0 3.0 0.00 0.00 0.00 88 1014.7
20260904172007 59 212 0.0 1.0 0.00 0.00 0.00 87 1014.9
20260904171503 59 213 0.0 0.0 0.00 0.00 0.00 88 1014.9
20260904170958 59 213 0.0 0.0 0.00 0.00 0.00 87 1014.7
20260904170453 58 213 0.0 0.0 0.00 0.00 0.00 87 1014.7
20260904165949 58 219 0.0 0.0 0.00 0.00 0.00 89 1014.9
20260904165448 58 214 0.0 0.0 0.00 0.00 0.00 87 1014.7
20260904164947 58 214 0.0 0.0 0.00 0.00 0.00 89 1014.8
20260904164442 58 215 0.0 0.0 0.00 0.00 0.00 90 1014.8
20260904163938 58 217 0.0 0.0 0.00 0.00 0.00 91 1014.8
20260904163438 57 213 0.0 1.0 0.00 0.00 0.00 90 1014.8
20260904162938 57 217 0.0 0.0 0.00 0.00 0.00 91 1014.8
20260904162433 57 214 0.0 0.0 0.00 0.00 0.00 91 1014.7
20260904161928 56 218 0.0 1.0 0.00 0.00 0.00 91 1014.5
20260904161424 57 206 0.0 0.0 0.00 0.00 0.00 95 1014.6
20260904160920 56 205 0.0 0.0 0.00 0.00 0.00 96 1014.9
20260904160414 56 205 0.0 0.0 0.00 0.00 0.00 96 1014.8
20260904155909 55 205 0.0 0.0 0.00 0.00 0.00 96 1014.6
20260904155404 55 205 0.0 0.0 0.00 0.00 0.00 96 1014.6
20260904154902 55 205 0.0 0.0 0.00 0.00 0.00 97 1014.6
20260904154357 55 204 0.0 0.0 0.00 0.00 0.00 97 1014.5
20260904153853 54 193 0.0 0.0 0.00 0.00 0.00 98 1014.6
20260904153348 54 193 0.0 0.0 0.00 0.00 0.00 98 1014.5
20260904152845 54 193 0.0 0.0 0.00 0.00 0.00 99 1014.5
20260904152344 53 193 0.0 0.0 0.00 0.00 0.00 99 1014.5
20260904151839 53 193 0.0 0.0 0.00 0.00 0.00 99 1014.4
20260904151338 53 193 0.0 0.0 0.00 0.00 0.00 99 1014.3
20260904150834 53 193 0.0 0.0 0.00 0.00 0.00 99 1014.4
20260904150329 53 193 0.0 0.0 0.00 0.00 0.00 99 1014.5
20260904145826 53 193 0.0 0.0 0.00 0.00 0.00 99 1014.2
20260904145323 53 193 0.0 0.0 0.00 0.00 0.00 99 1014.1
20260904144819 53 193 0.0 0.0 0.00 0.00 0.00 99 1013.9
20260904144314 53 193 0.0 0.0 0.00 0.00 0.00 99 1014.0
20260904143809 53 193 0.0 0.0 0.00 0.00 0.00 99 1013.9
20260904143306 53 193 0.0 0.0 0.00 0.00 0.00 99 1013.9
20260904142802 53 193 0.0 0.0 0.00 0.00 0.00 99 1013.9
20260904142257 53 193 0.0 0.0 0.00 0.00 0.00 99 1013.7
20260904141752 53 193 0.0 0.0 0.00 0.00 0.00 99 1013.8
20260904141247 52 193 0.0 0.0 0.00 0.00 0.00 99 1013.7
20260904140743 52 193 0.0 0.0 0.00 0.00 0.00 99 1013.7
20260904140238 52 193 0.0 0.0 0.00 0.00 0.00 99 1013.7
20260904135737 52 193 0.0 0.0 0.00 0.00 0.00 99 1013.9
20260904135232 52 193 0.0 0.0 0.00 0.00 0.00 99 1013.8
20260904134728 52 193 0.0 0.0 0.00 0.00 0.00 99 1013.6
20260904134228 52 193 0.0 0.0 0.00 0.00 0.00 99 1013.5
20260904133722 52 193 0.0 0.0 0.00 0.00 0.00 99 1013.3
20260904133219 52 193 0.0 0.0 0.00 0.00 0.00 99 1013.2
20260904132718 52 193 0.0 0.0 0.00 0.00 0.00 99 1013.4
20260904132214 52 193 0.0 0.0 0.00 0.00 0.00 99 1013.3
20260904131713 52 193 0.0 0.0 0.00 0.00 0.00 99 1013.5
20260904131208 52 193 0.0 0.0 0.00 0.00 0.00 99 1013.1
20260904130703 52 193 0.0 0.0 0.00 0.00 0.00 99 1013.1
20260904130202 52 193 0.0 0.0 0.00 0.00 0.00 99 1013.2
20260904125659 52 193 0.0 0.0 0.00 0.00 0.00 99 1013.2
20260904125154 52 193 0.0 0.0 0.00 0.00 0.00 99 1013.3
20260904124649 52 193 0.0 0.0 0.00 0.00 0.00 99 1013.3
20260904124145 52 193 0.0 0.0 0.00 0.00 0.00 99 1012.9
20260904123645 52 193 0.0 0.0 0.00 0.00 0.00 99 1013.2
20260904123141 52 193 0.0 0.0 0.00 0.00 0.00 99 1012.9
20260904122640 52 193 0.0 0.0 0.00 0.00 0.00 99 1013.0
20260904122136 52 193 0.0 0.0 0.00 0.00 0.00 99 1013.2
20260904121631 52 193 0.0 0.0 0.00 0.00 0.00 99 1012.8
20260904121126 52 193 0.0 0.0 0.00 0.00 0.00 99 1012.8
20260904120622 52 193 0.0 0.0 0.00 0.00 0.00 99 1012.6
20260904120118 52 193 0.0 0.0 0.00 0.00 0.00 99 1012.8
20260904115613 52 193 0.0 0.0 0.00 0.00 0.00 99 1012.5
20260904115108 52 193 0.0 0.0 0.00 0.00 0.00 99 1012.3
20260904114608 52 193 0.0 0.0 0.00 0.00 0.00 99 1012.5
20260904114103 52 193 0.0 0.0 0.00 0.00 0.00 99 1012.2
20260904113557 52 193 0.0 0.0 0.00 0.00 0.00 99 1012.5
20260904113056 52 193 0.0 0.0 0.00 0.00 0.00 99 1012.3
20260904112552 52 193 0.0 0.0 0.00 0.00 0.00 99 1012.1
20260904112048 52 193 0.0 0.0 0.00 0.00 0.00 99 1012.2
20260904111543 52 193 0.0 0.0 0.00 0.00 0.00 99 1012.3
20260904111039 52 193 0.0 0.0 0.00 0.00 0.00 99 1012.1
20260904110538 52 193 0.0 0.0 0.00 0.00 0.00 99 1012.5
20260904110034 52 193 0.0 0.0 0.00 0.00 0.00 99 1012.3
20260904105527 52 193 0.0 0.0 0.00 0.00 0.00 99 1012.5
20260904105023 52 193 0.0 0.0 0.00 0.00 0.00 99 1012.2
20260904104518 52 193 0.0 0.0 0.00 0.00 0.00 99 1012.3
20260904104014 53 193 0.0 0.0 0.00 0.00 0.00 99 1012.3
20260904103510 53 193 0.0 0.0 0.00 0.00 0.00 99 1012.3
20260904103006 53 193 0.0 0.0 0.00 0.00 0.00 99 1012.2
20260904102501 53 193 0.0 0.0 0.00 0.00 0.00 99 1012.1
20260904101956 53 193 0.0 0.0 0.00 0.00 0.00 99 1012.5
20260904101453 53 193 0.0 0.0 0.00 0.00 0.00 99 1012.1
20260904100948 53 193 0.0 0.0 0.00 0.00 0.00 99 1012.3
20260904100444 53 193 0.0 0.0 0.00 0.00 0.00 99 1012.0
20260904095943 53 193 0.0 0.0 0.00 0.00 0.00 99 1012.1
20260904095438 53 193 0.0 0.0 0.00 0.00 0.00 99 1011.8
20260904094933 53 193 0.0 0.0 0.00 0.00 0.00 99 1012.2
20260904094428 53 193 0.0 0.0 0.00 0.00 0.00 99 1011.9
20260904093924 54 193 0.0 0.0 0.00 0.00 0.00 99 1011.9
20260904093420 54 193 0.0 0.0 0.00 0.00 0.00 99 1012.2
20260904092915 54 191 0.0 0.0 0.00 0.00 0.00 99 1012.3
20260904092412 54 194 0.0 0.0 0.00 0.00 0.00 99 1012.1
20260904091908 54 194 0.0 0.0 0.00 0.00 0.00 99 1012.1
20260904091403 54 194 0.0 0.0 0.00 0.00 0.00 99 1012.3
20260904090857 54 195 0.0 0.0 0.00 0.00 0.00 99 1012.3
20260904090353 54 195 0.0 0.0 0.00 0.00 0.00 99 1012.0
20260904085848 54 195 0.0 0.0 0.00 0.00 0.00 99 1012.0
20260904085343 54 195 0.0 0.0 0.00 0.00 0.00 99 1011.9
20260904084843 54 195 0.0 0.0 0.00 0.00 0.00 99 1011.9
20260904084340 54 195 0.0 0.0 0.00 0.00 0.00 99 1011.9
20260904083835 54 195 0.0 0.0 0.00 0.00 0.00 99 1012.0
20260904083332 54 195 0.0 0.0 0.00 0.00 0.00 99 1011.8
20260904082827 54 197 0.0 0.0 0.00 0.00 0.00 99 1011.9
20260904082321 54 200 0.0 0.0 0.00 0.00 0.00 98 1011.8
20260904081817 54 200 0.0 0.0 0.00 0.00 0.00 98 1011.6
20260904081312 54 200 0.0 0.0 0.00 0.00 0.00 98 1011.9
20260904080808 54 200 0.0 0.0 0.00 0.00 0.00 98 1011.7
20260904080303 54 200 0.0 0.0 0.00 0.00 0.00 98 1012.0
20260904075800 54 201 0.0 0.0 0.00 0.00 0.00 97 1011.9
20260904075254 54 201 0.0 0.0 0.00 0.00 0.00 97 1012.2
20260904074753 54 200 0.0 0.0 0.00 0.00 0.00 97 1012.2
20260904074248 55 200 0.0 0.0 0.00 0.00 0.00 97 1012.3
20260904073744 55 200 0.0 0.0 0.00 0.00 0.00 97 1012.2
20260904073240 55 200 0.0 0.0 0.00 0.00 0.00 96 1012.2
20260904072736 55 200 0.0 0.0 0.00 0.00 0.00 96 1012.1
20260904072229 55 200 0.0 0.0 0.00 0.00 0.00 96 1012.1